Weather History for CYKA - April, 2013

Change the Weather History Date:

Tuesday, April 9, 2013

  Actual Average Record
Temperature  
Mean Temperature 44 °F -  
Max Temperature 57 °F 56 °F 68 °F (2004)
Min Temperature 31 °F 34 °F 28 °F (2001)
Degree Days  
Heating Degree Days 21    
Moisture  
Dew Point 30 °F    
Average Humidity 53    
Maximum Humidity 75    
Minimum Humidity 33    
Precipitation  
Precipitation 0.00 in - - ()
Sea Level Pressure  
Sea Level Pressure 30.20 in    
Wind  
Wind Speed 8 mph ()    
Max Wind Speed 17 mph    
Max Gust Speed 25 mph    
Averages and records for this station are not official NWS values.
T = Trace of Precipitation, MM = Missing Value Source: Averaged Metar Reports

Daily Weather History Graph

Daily Weather History Graph

Search for Another Location

Airport or City:

Trip Planner

Search our weather history database for the weather conditions in past years. The results will help you decide how hot, cold, wet, or windy it might be!

Date:

Astronomy

Apr. 09, 2013 Rise Set
Actual Time 6:19 AM PDT 7:47 PM PDT
Civil Twilight 5:45 AM PDT 8:22 PM PDT
Nautical Twilight 5:03 AM PDT 9:03 PM PDT
Astronomical Twilight 4:18 AM PDT 9:49 PM PDT
Moon 5:47 AM PDT (4/9) 7:30 PM PDT (4/9)
Length of Visible Light 14h 36m
Length of Day
13h 28m
Waning Crescent, 0% of the Moon is Illuminated
Apr 9
Waning Crescent
Apr 10
New
Apr 18
First Quarter
Apr 25
Full
May 2
Last Quarter

Hourly Weather History & Observations

Time (PDT) Temp. Windchill Dew Point Humidity Pressure Visibility Wind Dir Wind Speed Gust Speed Precip Events Conditions
12:00 AM 41.0 °F 35.8 °F 26.6 °F 57% 30.23 in 40.0 mi ESE 8.1 mph - N/A   Scattered Clouds
1:00 AM 37.4 °F 32.8 °F 24.8 °F 60% 30.25 in 40.0 mi ENE 5.8 mph - N/A   Partly Cloudy
2:00 AM 37.4 °F 34.9 °F 26.6 °F 65% 30.26 in 40.0 mi NE 3.5 mph - N/A   Clear
4:00 AM 32.0 °F 25.6 °F 24.8 °F 75% 30.28 in 40.0 mi East 6.9 mph - N/A   Clear
5:00 AM 35 °F - 26 °F 58% 30.29 in 37 mi East 6.9 mph - -  
5:00 AM 33.8 °F 28.6 °F 26.6 °F 75% 30.29 in 40.0 mi East 5.8 mph - N/A   Clear
6:00 AM 33.8 °F 26.4 °F 26.6 °F 75% 30.30 in 40.0 mi East 9.2 mph - N/A   Scattered Clouds
7:00 AM 33.8 °F 28.6 °F 26.6 °F 75% 30.31 in 40.0 mi ENE 5.8 mph - N/A   Scattered Clouds
8:00 AM 37.4 °F 30.3 °F 28.4 °F 70% 30.31 in 40.0 mi East 10.4 mph - N/A   Mostly Cloudy
9:00 AM 41.0 °F 35.8 °F 28.4 °F 61% 30.28 in 40.0 mi East 8.1 mph - N/A   Mostly Cloudy
10:00 AM 46.4 °F 42.9 °F 30.2 °F 53% 30.25 in 40.0 mi SE 6.9 mph - N/A   Mostly Cloudy
11:00 AM 52 °F - 31 °F 33% 30.22 in 37 mi ESE 3.5 mph - -   Scattered Clouds
11:00 AM 51.8 °F - 32.0 °F 47% 30.22 in 40.0 mi SE 3.5 mph - N/A   Mostly Cloudy
12:00 PM 55.4 °F - 32.0 °F 41% 30.19 in 40.0 mi East 17.3 mph 25.3 mph N/A   Mostly Cloudy
1:00 PM 57.2 °F - 32.0 °F 38% 30.17 in 40.0 mi SSE 12.7 mph - N/A   Overcast
2:00 PM 55.4 °F - 32.0 °F 41% 30.17 in 40.0 mi South 16.1 mph - N/A   Overcast
3:00 PM 55.4 °F - 33.8 °F 44% 30.17 in 40.0 mi South 9.2 mph - N/A   Overcast
4:00 PM 55.4 °F - 33.8 °F 44% 30.15 in 40.0 mi South 13.8 mph - N/A   Overcast
5:00 PM 54 °F - 33 °F 33% 30.14 in 37 mi South 13.8 mph - -   Overcast
5:00 PM 55.4 °F - 33.8 °F 44% 30.14 in 40.0 mi South 11.5 mph 19.6 mph N/A   Overcast
6:00 PM 53.6 °F - 33.8 °F 47% 30.13 in 40.0 mi South 11.5 mph - N/A   Overcast
7:00 PM 51.8 °F - 35.6 °F 54% 30.12 in 40.0 mi ENE 8.1 mph - N/A   Overcast
8:00 PM 51.8 °F - 32.0 °F 47% 30.11 in 40.0 mi South 11.5 mph 18.4 mph N/A   Mostly Cloudy
9:00 PM 50.0 °F - 32.0 °F 50% 30.10 in 40.0 mi East 10.4 mph - N/A   Mostly Cloudy
10:00 PM 50.0 °F - 33.8 °F 54% 30.09 in 40.0 mi SE 5.8 mph - N/A   Mostly Cloudy
11:00 PM 51 °F - 33 °F 38% 30.07 in 37 mi East 11.5 mph - -   Overcast
11:00 PM 50.0 °F - 33.8 °F 54% 30.07 in 40.0 mi ESE 12.7 mph - N/A   Overcast